[[{"header":{"parameterUnit":"m.s-1","parameterCategory":1,"la1":30.2991,"la2":30.254,"lo1":-89.0895,"lo2":-89.0444,"dy":0.0017,"dx":0.0017,"nx":28,"ny":28,"refTime":"2026-02-09T03:00:00:Z","depth":0,"parameterNumber":2,"parameterNumberName":"U-component_of_WINDS"},"data":[0,0,0,0,0,0,0,0,0,0,0,0,0,0,0,0,0,0,0,0,0,0,0,0,0,0,0,0,0,0,0,0,0,0,0,0,0,0,0,0,0,0,0,0,0,0,0,0,0,0,0,0,0,0,0,0,0,0,1.1965,1.1964,0,1.1916,1.1916,1.1915,1.1832,1.1831,1.1829,1.1828,1.178,1.178,1.178,0,0,0,0,0,0,0,0,0,0,0,0,0,1.1987,1.1987,1.1965,1.1964,1.1964,1.1916,1.1916,1.1915,1.1833,1.1831,1.1829,1.1827,1.178,1.178,1.178,0,0,0,0,0,0,0,0,0,0,0,0,0,1.1962,1.1987,1.1965,1.1917,1.1912,1.1917,1.1916,1.1915,1.1833,1.1831,1.1828,1.1826,1.178,1.178,1.178,1.1829,0,0,1.1781,1.1781,0,0,0,0,0,0,0,0,1.1963,1.1961,1.1924,1.192,1.1915,1.1878,1.1906,1.1886,1.1834,1.1863,1.1828,1.1825,1.1815,1.1812,1.1808,1.1826,1.1824,1.1781,1.1781,1.1781,1.1782,0,0,0,0,0,0,0,1.1965,1.1963,1.1946,1.1924,1.1918,1.1898,1.1892,1.1902,1.1853,1.186,1.1854,1.1849,1.1811,1.1808,1.1806,1.1824,1.1781,1.1781,1.1782,1.1782,1.1878,1.1881,0,0,0,0,0,0,1.1974,1.1965,1.1947,1.1944,1.1934,1.1899,1.1892,1.1892,1.1852,1.1844,1.1852,1.1846,1.1809,1.1806,1.1804,1.1858,1.1781,1.1782,1.1782,1.1876,1.1879,1.1882,0,0,0,0,0,0,1.1975,1.1973,1.1949,1.1953,1.1948,1.1901,1.1902,1.1892,1.1889,1.1846,1.1836,1.1857,1.1807,1.1804,1.1823,1.1855,1.1782,1.1782,1.1873,1.1877,1.188,1.1966,0,0,0,0,0,0,1.1976,1.1974,1.1992,1.1954,1.1948,1.1969,1.1904,1.1893,1.1889,1.1881,1.1848,1.184,1.1805,1.1823,1.1823,1.1854,1.1782,1.187,1.1875,1.1879,1.196,1.1972,1.1982,0,0,0,0,0,1.1977,1.2018,1.1993,1.1991,1.197,1.1971,1.1968,1.1925,1.1892,1.191,1.1882,1.1841,1.1851,1.1826,1.1825,1.1857,1.1868,1.1873,1.1879,1.1955,1.1969,1.1982,0,0,0,0,0,0,1.2062,1.2012,1.1984,1.2014,1.1997,1.1957,1.1978,1.1942,1.1935,1.1928,1.1875,1.1869,1.1894,1.1877,1.1849,1.1901,1.1853,1.1859,1.1911,1.1925,1.1936,1.194,1.1782,0,0,0,0,0,1.2084,1.2089,1.2045,1.2077,1.2069,1.2025,1.2024,1.1993,1.1973,1.1966,1.1939,1.1922,1.1921,1.1922,1.1919,1.1956,1.1948,1.1978,1.1989,1.1998,1.2004,1.2022,1.2035,1.1899,1.1899,1.1899,0,0,1.2131,1.2104,1.211,1.2093,1.2076,1.2083,1.202,1.2029,1.2034,1.1967,1.1984,1.1964,1.1941,1.197,1.1981,1.1956,1.2039,1.2005,1.2013,1.2013,1.2029,1.2042,1.2053,1.1903,1.1902,1.1902,0,0,1.2218,1.2199,1.2222,1.2206,1.2181,1.2151,1.2157,1.2121,1.2105,1.212,1.207,1.2075,1.2074,1.206,1.2053,1.2134,1.2097,1.2134,1.2193,1.2211,1.2222,1.2231,1.226,1.2271,1.214,1.214,1.214,0,1.2279,1.2286,1.2239,1.2251,1.2245,1.2184,1.2208,1.2194,1.217,1.2167,1.2139,1.2137,1.2118,1.2142,1.2161,1.2157,1.2162,1.2138,1.2224,1.2233,1.2241,1.2268,1.2279,1.2145,1.2144,1.2144,1.2143,0,1.2362,1.2368,1.239,1.2367,1.2363,1.2381,1.2337,1.2338,1.2307,1.228,1.2296,1.227,1.2261,1.2264,1.2234,1.2283,1.2269,1.2233,1.2185,1.2259,1.2284,1.2293,1.2152,1.215,1.2149,1.2147,0,0,1.2504,1.2453,1.2462,1.2451,1.2418,1.2421,1.2436,1.2426,1.2429,1.2413,1.2425,1.2425,1.2392,1.2383,1.2351,1.2367,1.2432,1.2329,1.2328,1.2349,1.2486,1.2513,1.2526,1.2407,1.2409,1.241,1.2487,0,1.2585,1.2607,1.2564,1.2597,1.2602,1.2543,1.2556,1.2538,1.2513,1.2513,1.2485,1.2486,1.2442,1.2437,1.245,1.2422,1.2459,1.2415,1.2417,1.2418,1.2425,1.2538,1.2567,1.2642,1.2497,1.2498,1.2499,0,1.2683,1.2671,1.2705,1.2669,1.2669,1.2682,1.2668,1.2669,1.2647,1.2627,1.2618,1.2579,1.2591,1.2544,1.2559,1.2531,1.2529,1.2515,1.2517,1.2516,1.2464,1.2541,1.2664,1.2676,1.2514,1.2513,1.2512,0,1.2783,1.2776,1.2794,1.2786,1.2745,1.2755,1.2739,1.2714,1.271,1.2698,1.2695,1.2686,1.268,1.2674,1.2633,1.2602,1.2654,1.2603,1.2638,1.264,1.2653,1.2652,1.2778,1.2651,1.2651,1.265,1.265,0,1.2878,1.2901,1.2839,1.285,1.2874,1.2824,1.2849,1.2826,1.2804,1.2811,1.2759,1.2767,1.2712,1.2713,1.2682,1.27,1.2698,1.2682,1.2674,1.2687,1.2689,1.2686,1.268,1.2653,1.2653,1.2652,1.2652,0,1.2994,1.2953,1.297,1.2929,1.2919,1.2939,1.2904,1.2913,1.2884,1.2892,1.2891,1.2847,1.2845,1.2804,1.2794,1.2772,1.2803,1.2785,1.2811,1.2805,1.2843,1.284,1.2971,1.2985,1.2849,1.285,1.2851,0,1.3058,1.3073,1.3034,1.3034,1.302,1.3021,1.3017,1.2968,1.2966,1.294,1.2953,1.2947,1.2939,1.294,1.2906,1.2898,1.2879,1.2926,1.2878,1.2891,1.288,1.288,1.2881,1.2936,1.2938,1.2939,1.2941,0,1.3175,1.3154,1.3149,1.3138,1.3134,1.3122,1.3108,1.3111,1.3057,1.3057,1.3054,1.3049,1.3038,1.3033,1.3018,1.3001,1.2962,1.2956,1.2963,1.2978,1.2992,1.2985,1.2839,1.2953,1.2952,1.2951,1.295,1.295,1.3267,1.3278,1.3252,1.3248,1.3232,1.3219,1.3225,1.3197,1.3194,1.3181,1.3152,1.3154,1.313,1.3106,1.3092,1.3093,1.307,1.3081,1.3084,1.3087,1.3095,1.2991,1.309,1.309,1.309,1.3089,1.3089,0,1.3382,1.3361,1.3359,1.3339,1.3336,1.3299,1.3281,1.3281,1.3283,1.3264,1.3257,1.3254,1.3248,1.3214,1.3205,1.3212,1.3194,1.3211,1.321,1.3207,1.3116,1.3111,1.3226,1.3226,1.3226,1.3226,1.3226,1.3226,1.3441,1.3458,1.3433,1.3441,1.3421,1.3422,1.3415,1.3403,1.3387,1.3385,1.338,1.3358,1.3332,1.332,1.3313,1.3303,1.3302,1.3326,1.331,1.3226,1.3213,1.3201,1.3195,1.3326,1.3326,1.34,1.3401,1.3401]},{"header":{"parameterUnit":"m.s-1","parameterCategory":1,"la1":30.2991,"la2":30.254,"lo1":-89.0895,"lo2":-89.0444,"dy":0.0017,"dx":0.0017,"nx":28,"ny":28,"refTime":"2026-02-09T03:00:00:Z","depth":0,"parameterNumber":3,"parameterNumberName":"V-component_of_WINDS"},"data":[0,0,0,0,0,0,0,0,0,0,0,0,0,0,0,0,0,0,0,0,0,0,0,0,0,0,0,0,0,0,0,0,0,0,0,0,0,0,0,0,0,0,0,0,0,0,0,0,0,0,0,0,0,0,0,0,0,0,1.8068,1.8069,0,1.8159,1.816,1.8161,1.8167,1.8166,1.8165,1.8164,1.826,1.8263,1.8267,0,0,0,0,0,0,0,0,0,0,0,0,0,1.7901,1.7904,1.8067,1.8069,1.807,1.8159,1.816,1.8161,1.8167,1.8166,1.8165,1.8163,1.8259,1.8263,1.8267,0,0,0,0,0,0,0,0,0,0,0,0,0,1.7981,1.7905,1.8067,1.8083,1.8086,1.8158,1.816,1.8162,1.8167,1.8166,1.8164,1.8163,1.8257,1.8262,1.8268,1.8331,0,0,1.8284,1.8286,0,0,0,0,0,0,0,0,1.7976,1.7987,1.808,1.8082,1.8085,1.815,1.8136,1.8219,1.8168,1.8137,1.8164,1.8162,1.8225,1.8233,1.8253,1.8336,1.834,1.8284,1.8287,1.829,1.8291,0,0,0,0,0,0,0,1.7971,1.7983,1.8104,1.8081,1.8084,1.8087,1.8097,1.8152,1.8188,1.8139,1.814,1.815,1.8226,1.8248,1.8255,1.8341,1.8284,1.8289,1.8292,1.8294,1.8482,1.8484,0,0,0,0,0,0,1.7962,1.7979,1.8101,1.8106,1.8026,1.8091,1.8102,1.8131,1.8188,1.8195,1.8152,1.815,1.824,1.8249,1.8259,1.8338,1.829,1.8295,1.8298,1.848,1.8482,1.8484,0,0,0,0,0,0,1.7958,1.7973,1.8097,1.8043,1.8059,1.8096,1.8128,1.8133,1.8156,1.8197,1.8204,1.8167,1.8239,1.8251,1.8313,1.8341,1.8297,1.8302,1.8478,1.8481,1.8483,1.8496,0,0,0,0,0,0,1.7953,1.7971,1.7995,1.8043,1.8062,1.8149,1.813,1.8136,1.8164,1.8164,1.8214,1.8221,1.8239,1.8305,1.8319,1.8348,1.8306,1.8476,1.8479,1.8483,1.8493,1.8499,1.8504,0,0,0,0,0,1.7948,1.7995,1.7996,1.8011,1.8092,1.8151,1.8161,1.8181,1.8167,1.8191,1.8218,1.8219,1.8336,1.8312,1.8327,1.8358,1.8474,1.8478,1.8482,1.8491,1.8498,1.8504,0,0,0,0,0,0,1.7951,1.8002,1.8004,1.8068,1.8105,1.8152,1.8184,1.8187,1.8229,1.8227,1.825,1.8261,1.8322,1.8346,1.8318,1.8423,1.8404,1.8411,1.8405,1.8412,1.8417,1.841,1.831,0,0,0,0,0,1.7959,1.8001,1.8044,1.8097,1.8115,1.8146,1.8173,1.8184,1.8224,1.8239,1.8271,1.831,1.8355,1.8385,1.8429,1.8497,1.8508,1.8526,1.8531,1.8535,1.8541,1.858,1.8588,1.8498,1.8498,1.8498,0,0,1.7976,1.8009,1.8035,1.8099,1.8128,1.8173,1.8159,1.8207,1.8241,1.8247,1.8307,1.8332,1.8377,1.8442,1.8472,1.8464,1.8569,1.854,1.8543,1.8547,1.8585,1.8594,1.8601,1.8501,1.85,1.85,0,0,1.8031,1.806,1.8108,1.8138,1.8183,1.8203,1.8214,1.8261,1.8277,1.8338,1.8344,1.8385,1.8462,1.8494,1.8521,1.8588,1.8591,1.8602,1.863,1.8667,1.8674,1.8681,1.8706,1.8714,1.8608,1.8608,1.8608,0,1.8047,1.8114,1.8132,1.818,1.8208,1.8215,1.8264,1.8293,1.835,1.837,1.836,1.8458,1.8489,1.8562,1.8579,1.8599,1.8614,1.8597,1.8671,1.8678,1.8685,1.8709,1.8718,1.8609,1.8609,1.8609,1.8609,0,1.8132,1.8178,1.8211,1.8266,1.8298,1.8346,1.8373,1.8403,1.8412,1.8434,1.8497,1.8534,1.8586,1.8604,1.8613,1.8679,1.8673,1.8667,1.8648,1.8694,1.8717,1.8727,1.8611,1.861,1.861,1.861,0,0,1.8191,1.8256,1.8268,1.8293,1.8343,1.838,1.8429,1.8479,1.8506,1.8545,1.8588,1.8654,1.8648,1.8679,1.8692,1.8724,1.8777,1.8714,1.8716,1.8726,1.8853,1.8858,1.8869,1.8779,1.8781,1.8782,1.885,0,1.8252,1.8339,1.8357,1.8432,1.8476,1.8483,1.8526,1.8562,1.8584,1.8625,1.8649,1.8696,1.8685,1.8703,1.8736,1.8763,1.8803,1.8759,1.882,1.8822,1.8809,1.8881,1.8886,1.8948,1.8859,1.8861,1.8862,0,1.8335,1.8376,1.8455,1.8501,1.852,1.8558,1.8606,1.8644,1.8686,1.87,1.8734,1.8743,1.8796,1.8774,1.8847,1.8817,1.8843,1.886,1.8863,1.887,1.8845,1.8891,1.8969,1.8978,1.8876,1.8875,1.8874,0,1.8372,1.8447,1.8504,1.8526,1.858,1.8606,1.863,1.867,1.87,1.8742,1.8762,1.881,1.8837,1.8874,1.8897,1.8879,1.897,1.8949,1.8984,1.8983,1.9003,1.9002,1.9087,1.9018,1.9018,1.9018,1.9017,0,1.8439,1.8487,1.8522,1.8557,1.8612,1.8633,1.8687,1.8711,1.8747,1.8788,1.8797,1.8836,1.8863,1.8906,1.8924,1.8983,1.8995,1.9008,1.9013,1.9008,1.9007,1.9026,1.9023,1.902,1.902,1.9019,1.9019,0,1.8489,1.8514,1.8577,1.8623,1.8636,1.8674,1.8714,1.875,1.8771,1.8823,1.8837,1.8871,1.8922,1.8949,1.9013,1.9025,1.9092,1.9093,1.9077,1.9079,1.9113,1.911,1.9215,1.923,1.915,1.915,1.9151,0,1.8531,1.8568,1.8618,1.8646,1.867,1.8714,1.8744,1.8767,1.8798,1.8848,1.8878,1.8929,1.8972,1.9053,1.9085,1.9134,1.9137,1.9171,1.9145,1.9139,1.9139,1.9137,1.9141,1.9175,1.9176,1.9177,1.9177,0,1.8602,1.8612,1.8655,1.8702,1.8737,1.8775,1.8813,1.8836,1.8864,1.8899,1.8951,1.8983,1.9048,1.91,1.9151,1.9177,1.9183,1.9185,1.9196,1.9192,1.9182,1.9189,1.9091,1.9183,1.9182,1.9182,1.9181,1.9181,1.865,1.8684,1.8724,1.8772,1.8802,1.8837,1.8873,1.8899,1.8942,1.8996,1.9007,1.9062,1.9104,1.9174,1.9202,1.9246,1.9239,1.9255,1.9259,1.9262,1.9265,1.9174,1.9255,1.9255,1.9255,1.9255,1.9255,0,1.8723,1.8749,1.8792,1.8844,1.8882,1.8882,1.8924,1.8956,1.9004,1.9042,1.9084,1.9144,1.9194,1.9229,1.9281,1.9309,1.9313,1.9322,1.9321,1.9327,1.9267,1.9253,1.9318,1.9318,1.9318,1.9318,1.9318,1.9318,1.8765,1.8823,1.8838,1.8912,1.8938,1.8991,1.9016,1.9049,1.9079,1.9146,1.9187,1.9209,1.9247,1.9301,1.9348,1.9357,1.9376,1.9385,1.9395,1.9338,1.9331,1.9325,1.9312,1.9389,1.9389,1.9451,1.9452,1.9452]}]]